Weather History for Savannah Hunter, GA

Change the Weather History Date:

Thursday, April 17, 2014

  Actual Average Record
Temperature  
Mean Temperature 58 °F -  
Max Temperature 68 °F 76 °F 86 °F (2002)
Min Temperature 49 °F 55 °F 41 °F (2005)
Degree Days  
Heating Degree Days 7    
Growing Degree Days 8 (Base 50)    
Moisture  
Dew Point 46 °F    
Average Humidity 68    
Maximum Humidity 82    
Minimum Humidity 52    
Precipitation  
Precipitation 0.00 in - - ()
Sea Level Pressure  
Sea Level Pressure 30.34 in    
Wind  
Wind Speed 9 mph (NE)    
Max Wind Speed 18 mph    
Max Gust Speed 29 mph    
Visibility 10 miles    
Events      
Averages and records for this station are not official NWS values.
T = Trace of Precipitation, MM = Missing Value Source: NWS Daily Summary

Daily Weather History Graph

Daily Weather History Graph

Search for Another Location

Airport:

Trip Planner

Search our weather history database for the weather conditions in past years. The results will help you decide how hot, cold, wet, or windy it might be!

Date:

Astronomy

Apr. 17, 2014 Rise Set
Actual Time 6:53 AM EDT 7:55 PM EDT
Civil Twilight 6:28 AM EDT 8:20 PM EDT
Nautical Twilight 5:58 AM EDT 8:50 PM EDT
Astronomical Twilight 5:27 AM EDT 9:21 PM EDT
Moon 10:32 PM EDT (4/17) 8:30 AM EDT (4/17)
Length of Visible Light 13h 52m
Length of Day
13h 01m
Waning Gibbous, 94% of the Moon is Illuminated
Apr 17
Waning Gibbous
Apr 22
Last Quarter
Apr 29
New
May 6
First Quarter
May 14
Full

Hourly Weather History & Observations

Time (EDT) Temp. Dew Point Humidity Pressure Visibility Wind Dir Wind Speed Gust Speed Precip Events Conditions
12:58 AM 53.6 °F 41.9 °F 65% 30.31 in 10.0 mi ENE 10.4 mph - N/A   Clear
1:58 AM 53.2 °F 42.8 °F 68% 30.31 in 10.0 mi NNE 5.8 mph - N/A   Clear
2:58 AM 51.1 °F 43.3 °F 75% 30.29 in 10.0 mi NNE 5.8 mph - N/A   Scattered Clouds
3:03 AM 50.0 °F 42.8 °F 76% 30.28 in 10.0 mi Variable 5.8 mph - N/A   Mostly Cloudy
3:58 AM 50.4 °F 43.7 °F 78% 30.29 in 10.0 mi NNE 6.9 mph - N/A   Overcast
4:33 AM 50.0 °F 44.6 °F 82% 30.29 in 10.0 mi NNE 5.8 mph - N/A   Scattered Clouds
4:58 AM 50.5 °F 44.1 °F 78% 30.30 in 10.0 mi NNE 6.9 mph - N/A   Partly Cloudy
5:33 AM 50.0 °F 44.6 °F 82% 30.30 in 10.0 mi Variable 5.8 mph - N/A   Mostly Cloudy
5:58 AM 50.7 °F 43.7 °F 77% 30.31 in 10.0 mi Variable 5.8 mph - N/A   Overcast
6:18 AM 50.0 °F 42.8 °F 76% 30.31 in 10.0 mi NNE 5.8 mph - N/A   Scattered Clouds
6:28 AM 50.0 °F 42.8 °F 76% 30.32 in 10.0 mi Variable 4.6 mph - N/A   Mostly Cloudy
6:58 AM 50.7 °F 43.2 °F 75% 30.33 in 10.0 mi NNE 9.2 mph - N/A   Overcast
7:53 AM 50.0 °F 41.0 °F 71% 30.35 in 10.0 mi Variable 5.8 mph - N/A   Scattered Clouds
7:58 AM 49.5 °F 40.8 °F 72% 30.36 in 10.0 mi NE 6.9 mph - N/A   Scattered Clouds
8:58 AM 51.6 °F 38.7 °F 61% 30.37 in 10.0 mi NNE 9.2 mph - N/A   Clear
9:18 AM 51.8 °F 37.4 °F 58% 30.37 in 10.0 mi NNE 8.1 mph 18.4 mph N/A   Mostly Cloudy
9:58 AM 53.6 °F 40.6 °F 62% 30.40 in 10.0 mi NNE 8.1 mph - N/A   Overcast
10:58 AM 56.1 °F 46.0 °F 69% 30.40 in 10.0 mi NNE 10.4 mph 18.4 mph N/A   Overcast
11:33 AM 59.0 °F 48.2 °F 67% 30.39 in 10.0 mi NE 12.7 mph 18.4 mph N/A   Mostly Cloudy
11:58 AM 60.8 °F 47.1 °F 61% 30.40 in 10.0 mi ENE 8.1 mph - N/A   Partly Cloudy
12:58 PM 63.9 °F 47.8 °F 56% 30.40 in 10.0 mi ENE 9.2 mph - N/A   Mostly Cloudy
1:58 PM 65.5 °F 47.8 °F 53% 30.38 in 10.0 mi NE 13.8 mph 18.4 mph N/A   Clear
2:58 PM 65.8 °F 47.5 °F 52% 30.37 in 10.0 mi ENE 16.1 mph 28.8 mph N/A   Scattered Clouds
3:58 PM 67.6 °F 51.1 °F 55% 30.33 in 10.0 mi ENE 9.2 mph 17.3 mph N/A   Overcast
4:58 PM 67.5 °F 50.0 °F 53% 30.30 in 10.0 mi East 15.0 mph 21.9 mph N/A   Partly Cloudy
5:58 PM 65.5 °F 50.7 °F 59% 30.33 in 10.0 mi East 18.4 mph - N/A   Clear
6:58 PM 62.6 °F 50.2 °F 64% 30.32 in 10.0 mi East 13.8 mph - N/A   Clear
7:58 PM 60.8 °F 50.9 °F 70% 30.32 in 10.0 mi ENE 9.2 mph - N/A   Clear
8:58 PM 61.0 °F 51.3 °F 70% 30.34 in 10.0 mi ENE 9.2 mph 17.3 mph N/A   Clear
9:58 PM 60.6 °F 51.6 °F 72% 30.34 in 10.0 mi ENE 10.4 mph 18.4 mph N/A   Clear
10:58 PM 61.3 °F 51.6 °F 70% 30.32 in 10.0 mi ENE 10.4 mph - N/A   Clear
11:58 PM 61.0 °F 51.4 °F 71% 30.30 in 10.0 mi ENE 10.4 mph - N/A   Clear